Regional Weather Roundup
Issued by NWS Huntsville, AL

Home | Current Version | Previous Version | Text Only | Print | Product List | Glossary On
Versions: 1 2 3 4 5 6 7 8 9 10 11 12 13 14 15 16 17 18 19 20 21 22 23 24 25 26 27
000
ASUS44 KHUN 291210
RWRHUN

WEATHER ROUNDUP FOR THE TENNESSEE VALLEY
NATIONAL WEATHER SERVICE HUNTSVILLE AL
700 AM CDT FRI JUL 29 2016

ALZ001>004-291300-
NORTHWEST ALABAMA

CITY           SKY/WX    TMP DP  RH WIND       PRES   REMARKS
SHOALS AIRPORT CLOUDY    75  72  90 CALM      30.01S
6HR MIN TEMP:  73; 6HR MAX TEMP:  76;

SHOALS TVA RES   N/A     73 N/A N/A MISG        N/A
$$

ALZ005>007-016-291300-
NORTH CENTRAL ALABAMA

CITY           SKY/WX    TMP DP  RH WIND       PRES   REMARKS
DECATUR AP     CLOUDY    74  72  93 SW3       30.02R
6HR MIN TEMP:  73; 6HR MAX TEMP:  74;

HUNTSVILLE AP  CLOUDY    74  70  87 CALM      30.02S
6HR MIN TEMP:  73; 6HR MAX TEMP:  74;

HUN NWS/UAH      N/A     74  71  89 SW2         N/A
MERIDIANVILLE  CLOUDY    73  68  83 CALM      30.03R
REDSTONE ARSN  CLOUDY    73  72  97 SW3       30.02R
VINEMONT AP    FAIR      73  71  95 CALM      30.06R
$$

ALZ008>010-291300-
NORTHEAST ALABAMA

CITY           SKY/WX    TMP DP  RH WIND       PRES   REMARKS
ALBERTVILLE    MOSUNNY   73  73 100 CALM      30.04R FOG
FORT PAYNE     CLOUDY    73  70  88 CALM      30.03S
SCOTTSBORO AP  CLOUDY    73  73 100 CALM      30.03S
SCOTTSBORO HCN   N/A     73 N/A N/A MISG        N/A
VALLEY HEAD      N/A     73 N/A N/A MISG        N/A
$$

TNZ076-096-097-291300-
SOUTHEASTERN MIDDLE TENNESSEE

CITY           SKY/WX    TMP DP  RH WIND       PRES   REMARKS
TULLAHOMA      CLOUDY    72  72 100 CALM      30.04R
WINCHESTER     CLOUDY    73  72  94 CALM      30.03S
$$

...SURROUNDING SITES...

CITY           SKY/WX    TMP DP  RH WIND       PRES   REMARKS
ATLANTA        MOSUNNY   74  72  93 W6        30.05R
ANNISTON       PTSUNNY   73  70  90 CALM      30.05R
BIRMINGHAM     CLOUDY    76  73  91 SW6       30.06R
CHATTANOOGA    PTSUNNY   77  71  82 S5        30.02R
DALTON         CLOUDY    72  72 100 CALM      30.03R
GADSDEN        MOSUNNY   74  73  97 CALM        N/A
GOLDEN TRNGL   MOCLDY    73  68  83 SW5       30.01R
HALEYVILLE     CLOUDY    72  71  97 SW5       30.05S
JACKSON TN     CLOUDY    75  74  96 S8        29.95F
MEMPHIS        CLOUDY    77  72  84 S9        29.95F
NASHVILLE      PTSUNNY   77  73  88 S6        29.98R
OXFORD MS      CLOUDY    73  70  88 SW6       30.02R
ROME           CLOUDY    75  72  90 CALM      30.02R
SAVANNAH       CLOUDY    77  73  88 SW5       29.98S
TUPELO         CLOUDY    76  71  85 CALM      30.01R
TUSCALOOSA     CLOUDY    74  74 100 S5        30.02S
$$

...GULF COAST WEATHER...

CITY           SKY/WX    TMP DP  RH WIND       PRES   REMARKS
GULFPORT       CLEAR     77  73  87 CALM      30.02R
PASCAGOULA     CLEAR     75  75 100 CALM      30.03R
MOBILE         PTCLDY    77  74  90 CALM      30.05R
GULF SHORES    SUNNY     76  76 100 CALM      30.03R
PENSACOLA      MOSUNNY   79  77  94 CALM      30.03R
DESTIN         MOSUNNY   84  79  85 N5        30.03R HX  96
PANAMA CITY    MOSUNNY   81  76  84 CALM      30.03R
APPALACHICOLA  SUNNY     79  78  97 CALM      30.04R
$$





USA.gov is the U.S. government's official web portal to all federal, state and local government web resources and services.